Regional Weather Roundup
Issued by NWS

Home | Current Version | Previous Version | Graphics & Text | Print | Product List | Glossary Off
Versions: 1 2 3 4 5 6 7 8 9 10 11 12 13 14 15 16 17 18 19 20 21 22 23 24 25 26 27 28 29 30 31 32 33 34 35 36 37 38 39 40 41 42 43 44 45 46 47 48 49 50

000
ASUS43 KDTX 211701
RWRMI
MICHIGAN HOURLY REGIONAL WEATHER ROUNDUP
NATIONAL WEATHER SERVICE DETROIT/PONTIAC MI
100 PM EDT SUN SEP 21 2014

NOTE: "FAIR" INDICATES FEW OR NO CLOUDS BELOW 12,000 FEET WITH NO
SIGNIFICANT WEATHER AND/OR OBSTRUCTION TO VISIBILITY.

MIZ047>049-052>055-059>063-066>070-074>076-081>083-211800-
SOUTHEAST LOWER MICHIGAN

CITY           SKY/WX    TMP DP  RH WIND       PRES   REMARKS
ADRIAN         CLOUDY    64  48  56 W21G31    29.75R
ALMA           LGT RAIN  61  55  81 W13       29.68R
ANN ARBOR      LGT RAIN  61  48  62 W21G26    29.70S
BAD AXE        CLOUDY    60  59  97 W15G21    29.62S
CARO           RAIN      59  57  93 W12G18    29.63R
DETROIT CITY   CLOUDY    68  49  50 W18G25    29.68R
DETROIT        PTSUNNY   65  49  56 W17G24    29.70R
FLINT          CLOUDY    64  52  64 W15G24    29.66S
GROSSE ILE     PTSUNNY   66  52  59 W14G25    29.69R
HILLSDALE      CLOUDY    60  55  81 W14G20    29.75S
HOWELL         RAIN      58  53  83 W14       29.69S

CITY           SKY/WX    TMP DP  RH WIND       PRES   REMARKS
JACKSON        CLOUDY    61  51  70 W15       29.71F
LAMBERTVILLE   PTSUNNY   66  50  55 W13G25    29.74R
LANSING        CLOUDY    62  51  67 W16       29.69S
LAPEER         PTSUNNY   65  53  65 W14G22    29.64S
MASON          CLOUDY    60  53  77 W15       29.70S
MONROE         PTSUNNY   66  50  55 W13G25    29.70R
MT. CLEMENS    MOSUNNY   68  48  49 W16G28    29.64S
PONTIAC        PTSUNNY   63  48  58 W22G30    29.67R
PORT HOPE        N/A     60  56  86 W12G18    29.59R
PORT HURON     PTSUNNY   64  54  68 W7        29.65S
TRI CITIES     LGT RAIN  61  57  87 W14       29.66R
TROY           CLOUDY    67  47  48 W16G23    29.69S
SAGINAW HB     RAIN      59  59 100 W12G18    29.64R
$$
MIZ043>046-050>051-056>058-064>065-071>073-077>080-211800-
SOUTHWEST LOWER MICHIGAN

CITY           SKY/WX    TMP DP  RH WIND       PRES   REMARKS
BATTLE CREEK   CLOUDY    61  52  72 NW17G32   29.75S
BENTON HARBOR  PTSUNNY   60  53  77 W18G31    29.83R
BIG RAPIDS     CLOUDY    59  56  88 NW10G24   29.71R
COLDWATER      CLOUDY    60  53  76 W18G28    29.77R HAZE
FREMONT        CLOUDY    57  56  95 NW16G25   29.75R
HOLLAND        CLOUDY    60  54  80 NW17G29   29.79R
GRAND RAPIDS   PTSUNNY   61  58  90 NW23G29   29.73R
IONIA          LGT RAIN  59  56  92 NW9       29.69R
KALAMAZOO      PTSUNNY   61  54  77 W14G23    29.77S
LUDINGTON      RAIN      55  52  92 N22G31    29.81R
MARSHALL       CLOUDY    62  53  74 W17G28    29.73S
MOUNT PLEASANT CLOUDY    59  58  96 W6        29.66S
MUSKEGON       CLOUDY    58  53  84 NW21G28   29.78R
SOUTH HAVEN    LGT RAIN  59  56  91 NW14G23   29.81R
$$
MIZ016>042-211800-
NORTHERN LOWER MICHIGAN

CITY           SKY/WX    TMP DP  RH WIND       PRES   REMARKS
ALPENA         CLOUDY    51  48  89 N14G26    29.71R
BEAVER ISLAND  CLOUDY    53  47  81 N15G23    29.82R
BELLAIRE       LGT RAIN  51  48  89 N10G18    29.78R
CADILLAC       LGT RAIN  53  52  95 NW17G28   29.73R
CHARLEVOIX     CLOUDY    54  50  86 N17G25    29.82R
FRANKFORT      LGT RAIN  54  49  85 N15G25    29.82R
GAYLORD        LGT RAIN  48  46  93 N10G22    29.75R FOG
GRAYLING       LGT RAIN  54  53  95 N10G18    29.73R
HARBOR SPRINGS CLOUDY    51  47  87 CALM      29.78R
HOUGHTON LAKE  LGT RAIN  54  52  93 N13G26    29.70R FOG
MANISTEE       CLOUDY    54  50  87 N17G28    29.81R
OSCODA         LGT RAIN  53  52  96 N18       29.65R
PELLSTON       CLOUDY    52  48  86 N9        29.78R
ROGERS CITY    HVY RAIN  48  48  99 N13G21    29.76R
TRAVERSE CITY  LGT RAIN  54  49  83 N15G26    29.77R
$$
MIZ007>008-015-211800-
EASTERN UPPER MICHIGAN

CITY           SKY/WX    TMP DP  RH WIND       PRES   REMARKS
KINROSS        CLOUDY    54  46  76 N17G24    29.76S
MACKINAC ISLAN CLOUDY    52  48  84 N16G23    29.76S
NEWBERRY       CLOUDY    46  40  78 N18G25    29.85R
S. S. MARIE    CLOUDY    52  42  69 N12G21    29.78R
$$
MIZ004>006-011>014-085-211800-
CENTRAL UPPER MICHIGAN

CITY           SKY/WX    TMP DP  RH WIND       PRES   REMARKS
MANISTIQUE     CLOUDY    48  44  86 N25G33    29.85R
ESCANABA       CLOUDY    52  39  62 N16G30    29.91R
MENOMINEE      CLOUDY    55  43  62 N13G26    29.90R
SAWYER-GWINN   LGT RAIN  45  43  93 N18       29.95R
$$
MIZ001>003-009>011-084-211800-
WESTERN UPPER MICHIGAN

CITY           SKY/WX    TMP DP  RH WIND       PRES   REMARKS
IRON MOUNTAIN  CLOUDY    52  43  71 N20G29    29.95R
HOUGHTON       PTSUNNY   47  34  60 N21G30    30.02R
COPPER HARBOR    N/A     45  36  70 NE17G24   30.01R
IRONWOOD       CLOUDY    46  41  81 N12G17    30.06R
$$

ABBREVIATIONS USED IN REMARKS
   TC - TEMPERATURE IN CELSIUS
  WCI - WIND CHILL INDEX
   HX - HEAT INDEX
  VSB - VISIBILITY



USA.gov is the U.S. government's official web portal to all federal, state and local government web resources and services.